• Em Portugal
  • Lista de países
  • Para 7 dias
  • Temperatura da água
  • Mapas de satélite
  • Mapa do tempo
  • Widgets de tempo
  • user-avatar
    Iniciar Sessão

    Previsão horária em Ajdyn

    Hoje, 20 Fevereiro, Terça-feira

    Tempo Temperatura Precipitação Vento Pressão Humidade
    00:00 +11°C° 0 mm 1 m/s 757 mmHg 79%
    01:00 +10°C° 0 mm 1 m/s 757 mmHg 79%
    02:00 +10°C° 0 mm 1 m/s 757 mmHg 80%
    03:00 +10°C° 0 mm 1 m/s 757 mmHg 80%
    04:00 +10°C° 0 mm 1 m/s 757 mmHg 80%
    05:00 +10°C° 0 mm 1 m/s 757 mmHg 80%
    06:00 +11°C° 0 mm 1 m/s 757 mmHg 80%
    07:00 +11°C° 0 mm 1 m/s 757 mmHg 80%
    08:00 +10°C° 0 mm 2 m/s 757 mmHg 80%
    09:00 +13°C° 0 mm 2 m/s 757 mmHg 74%
    10:00 +15°C° 0 mm 2 m/s 757 mmHg 69%
    11:00 +16°C° 0 mm 2 m/s 757 mmHg 64%
    12:00 +16°C° 0,1 mm 2 m/s 757 mmHg 64%
    13:00 +16°C° 0,1 mm 3 m/s 756 mmHg 65%
    14:00 +17°C° 0,1 mm 3 m/s 756 mmHg 65%
    15:00 +16°C° 0,1 mm 3 m/s 756 mmHg 69%
    16:00 +16°C° 0,1 mm 3 m/s 756 mmHg 73%
    17:00 +14°C° 0,1 mm 3 m/s 756 mmHg 76%
    18:00 +13°C° 0 mm 3 m/s 756 mmHg 81%
    19:00 +12°C° 0 mm 3 m/s 756 mmHg 86%
    20:00 +12°C° 0 mm 2 m/s 756 mmHg 91%
    21:00 +11°C° 0 mm 3 m/s 756 mmHg 91%
    22:00 +10°C° 0 mm 3 m/s 756 mmHg 92%
    23:00 +10°C° 0 mm 3 m/s 756 mmHg 92%

    Amanhã, 21 Fevereiro, Quarta-feira

    Tempo Temperatura Precipitação Vento Pressão Humidade
    00:00 +10°C° 0 mm 3 m/s 756 mmHg 92%
    01:00 +10°C° 0 mm 3 m/s 755 mmHg 91%
    02:00 +10°C° 0 mm 3 m/s 755 mmHg 90%
    03:00 +9°C° 0,1 mm 3 m/s 755 mmHg 90%
    04:00 +9°C° 0,1 mm 3 m/s 754 mmHg 89%
    05:00 +9°C° 0,1 mm 3 m/s 754 mmHg 88%
    06:00 +10°C° 0,6 mm 3 m/s 754 mmHg 88%
    07:00 +10°C° 0,6 mm 3 m/s 754 mmHg 88%
    08:00 +10°C° 0,6 mm 3 m/s 754 mmHg 88%
    09:00 +11°C° 0,9 mm 3 m/s 754 mmHg 86%
    10:00 +12°C° 0,9 mm 3 m/s 754 mmHg 83%
    11:00 +13°C° 0,9 mm 3 m/s 754 mmHg 81%
    12:00 +14°C° 0,5 mm 3 m/s 754 mmHg 79%
    13:00 +14°C° 0,5 mm 3 m/s 754 mmHg 76%
    14:00 +16°C° 0,5 mm 3 m/s 753 mmHg 73%
    15:00 +16°C° 0,6 mm 3 m/s 753 mmHg 76%
    16:00 +14°C° 0,6 mm 3 m/s 753 mmHg 80%
    17:00 +14°C° 0,6 mm 3 m/s 753 mmHg 83%
    18:00 +13°C° 0,5 mm 3 m/s 753 mmHg 86%
    19:00 +13°C° 0,5 mm 3 m/s 754 mmHg 89%
    20:00 +13°C° 0,5 mm 2 m/s 754 mmHg 92%
    21:00 +13°C° 0,4 mm 2 m/s 754 mmHg 92%
    22:00 +13°C° 0,4 mm 2 m/s 754 mmHg 92%
    23:00 +13°C° 0,4 mm 2 m/s 755 mmHg 92%

    Depois de amanhã, 22 Fevereiro, Quinta-feira

    Tempo Temperatura Precipitação Vento Pressão Humidade
    00:00 +12°C° 0,2 mm 2 m/s 755 mmHg 92%
    01:00 +12°C° 0,2 mm 2 m/s 754 mmHg 92%
    02:00 +12°C° 0,2 mm 2 m/s 754 mmHg 92%
    03:00 +12°C° 0,1 mm 2 m/s 754 mmHg 92%
    04:00 +12°C° 0,1 mm 2 m/s 754 mmHg 91%
    05:00 +10°C° 0,1 mm 2 m/s 754 mmHg 91%
    06:00 +12°C° 0,1 mm 2 m/s 754 mmHg 89%
    07:00 +12°C° 0,1 mm 2 m/s 755 mmHg 87%
    08:00 +12°C° 0,1 mm 2 m/s 755 mmHg 86%
    09:00 +14°C° 0,1 mm 2 m/s 755 mmHg 80%
    10:00 +15°C° 0,1 mm 2 m/s 755 mmHg 74%
    11:00 +17°C° 0,1 mm 2 m/s 755 mmHg 69%
    12:00 +17°C° 0,1 mm 2 m/s 754 mmHg 66%
    13:00 +18°C° 0,1 mm 2 m/s 754 mmHg 63%
    14:00 +19°C° 0,1 mm 2 m/s 754 mmHg 60%
    15:00 +18°C° 0,5 mm 2 m/s 754 mmHg 66%
    16:00 +17°C° 0,5 mm 2 m/s 754 mmHg 72%
    17:00 +17°C° 0,5 mm 2 m/s 754 mmHg 77%
    18:00 +16°C° 0,5 mm 2 m/s 754 mmHg 80%
    19:00 +15°C° 0,5 mm 2 m/s 755 mmHg 84%
    20:00 +14°C° 0,5 mm 2 m/s 755 mmHg 87%
    21:00 +14°C° 0,3 mm 2 m/s 755 mmHg 87%
    22:00 +14°C° 0,3 mm 2 m/s 755 mmHg 88%
    23:00 +14°C° 0,3 mm 2 m/s 756 mmHg 88%

    23 Fevereiro, Sexta-feira

    Tempo Temperatura Precipitação Vento Pressão Humidade
    00:00 +13°C° 0,1 mm 2 m/s 756 mmHg 89%
    01:00 +13°C° 0,1 mm 2 m/s 756 mmHg 89%
    02:00 +13°C° 0,1 mm 2 m/s 756 mmHg 90%
    03:00 +12°C° 0,1 mm 2 m/s 756 mmHg 90%
    04:00 +12°C° 0,1 mm 2 m/s 756 mmHg 90%
    05:00 +10°C° 0,1 mm 2 m/s 756 mmHg 90%
    06:00 +12°C° 0 mm 2 m/s 756 mmHg 89%
    07:00 +12°C° 0 mm 2 m/s 756 mmHg 87%
    08:00 +13°C° 0 mm 2 m/s 756 mmHg 86%
    09:00 +15°C° 0 mm 2 m/s 756 mmHg 78%
    10:00 +18°C° 0 mm 1 m/s 756 mmHg 70%
    11:00 +19°C° 0 mm 1 m/s 756 mmHg 63%
    12:00 +19°C° 0,2 mm 2 m/s 756 mmHg 62%
    13:00 +19°C° 0,2 mm 2 m/s 756 mmHg 61%
    14:00 +19°C° 0,2 mm 2 m/s 756 mmHg 60%
    15:00 +19°C° 0,3 mm 2 m/s 756 mmHg 65%
    16:00 +18°C° 0,3 mm 2 m/s 756 mmHg 69%
    17:00 +17°C° 0,3 mm 2 m/s 756 mmHg 74%
    18:00 +16°C° 0,1 mm 1 m/s 756 mmHg 79%
    19:00 +14°C° 0,1 mm 1 m/s 757 mmHg 84%
    20:00 +13°C° 0,1 mm 1 m/s 757 mmHg 89%
    21:00 +13°C° 0 mm 1 m/s 757 mmHg 89%
    22:00 +12°C° 0 mm 1 m/s 758 mmHg 90%
    23:00 +12°C° 0 mm 1 m/s 758 mmHg 91%

    24 Fevereiro, Sábado

    Tempo Temperatura Precipitação Vento Pressão Humidade
    00:00 +12°C° 0 mm 1 m/s 758 mmHg 91%
    01:00 +12°C° 0 mm 2 m/s 758 mmHg 91%
    02:00 +10°C° 0 mm 2 m/s 758 mmHg 91%
    03:00 +10°C° 0 mm 2 m/s 758 mmHg 90%
    04:00 +10°C° 0 mm 2 m/s 758 mmHg 90%
    05:00 +10°C° 0 mm 2 m/s 757 mmHg 89%
    06:00 +10°C° 0 mm 2 m/s 757 mmHg 87%
    07:00 +11°C° 0 mm 3 m/s 758 mmHg 84%
    08:00 +11°C° 0 mm 3 m/s 758 mmHg 82%
    09:00 +14°C° 0 mm 3 m/s 757 mmHg 71%
    10:00 +17°C° 0 mm 4 m/s 757 mmHg 61%
    11:00 +19°C° 0 mm 4 m/s 757 mmHg 50%
    12:00 +20°C° 0 mm 4 m/s 756 mmHg 48%
    13:00 +21°C° 0 mm 5 m/s 756 mmHg 46%
    14:00 +21°C° 0 mm 5 m/s 755 mmHg 43%
    15:00 +20°C° 0,2 mm 5 m/s 755 mmHg 51%
    16:00 +19°C° 0,2 mm 5 m/s 755 mmHg 58%
    17:00 +17°C° 0,2 mm 5 m/s 755 mmHg 66%
    18:00 +17°C° 0,1 mm 4 m/s 755 mmHg 71%
    19:00 +14°C° 0,1 mm 4 m/s 755 mmHg 76%
    20:00 +13°C° 0,1 mm 4 m/s 756 mmHg 82%
    21:00 +13°C° 0,3 mm 3 m/s 756 mmHg 84%
    22:00 +12°C° 0,3 mm 3 m/s 756 mmHg 87%
    23:00 +12°C° 0,3 mm 3 m/s 756 mmHg 90%

    25 Fevereiro, Domingo

    Tempo Temperatura Precipitação Vento Pressão Humidade
    00:00 +11°C° 0,1 mm 3 m/s 756 mmHg 90%
    01:00 +11°C° 0,1 mm 3 m/s 756 mmHg 90%
    02:00 +12°C° 0,1 mm 2 m/s 756 mmHg 90%
    03:00 +12°C° 0 mm 2 m/s 756 mmHg 90%
    04:00 +12°C° 0 mm 2 m/s 756 mmHg 90%
    05:00 +12°C° 0 mm 2 m/s 756 mmHg 90%
    06:00 +12°C° 0 mm 2 m/s 756 mmHg 89%
    07:00 +13°C° 0 mm 2 m/s 756 mmHg 88%
    08:00 +13°C° 0 mm 2 m/s 756 mmHg 87%
    09:00 +14°C° 0 mm 3 m/s 756 mmHg 77%
    10:00 +17°C° 0 mm 3 m/s 756 mmHg 67%
    11:00 +19°C° 0 mm 3 m/s 756 mmHg 57%
    12:00 +20°C° 0 mm 3 m/s 755 mmHg 53%
    13:00 +20°C° 0 mm 3 m/s 755 mmHg 49%
    14:00 +21°C° 0 mm 3 m/s 755 mmHg 46%
    15:00 +20°C° 0,1 mm 3 m/s 755 mmHg 53%
    16:00 +19°C° 0,1 mm 3 m/s 755 mmHg 59%
    17:00 +18°C° 0,1 mm 3 m/s 754 mmHg 66%
    18:00 +17°C° 0,4 mm 3 m/s 755 mmHg 70%
    19:00 +16°C° 0,4 mm 3 m/s 755 mmHg 74%
    20:00 +14°C° 0,4 mm 3 m/s 755 mmHg 78%
    21:00 +13°C° 0,5 mm 3 m/s 755 mmHg 82%
    22:00 +13°C° 0,5 mm 3 m/s 755 mmHg 86%
    23:00 +13°C° 0,5 mm 3 m/s 755 mmHg 90%
    Mostrar mais